Location: Unspecified
(0.0000°N, 0.0000°E)
Time: 04:03:40
(UTC+00:00)

Tiangong - Pass Details

Date: 24 March 2026
Orbit: 375 x 384 km, 41.5° (Epoch: 20 April)

Event Time Altitude Azimuth Distance (km) Brightness Sun altitude
Rises 19:21:45 0° 222° (SW) 2,242 2.3 -18.9°
Reaches altitude 10° 19:23:51 10° 219° (SW) 1,385 1.2 -19.4°
Enters shadow 19:26:17 48° 196° (SSW) 498 -1.6 -20.0°
